Location: Dammartin
(48.9032°N, 1.6195°E)
Time: 16:23:15
(UTC+00:00)

Nadezhda 2 Rocket - Pass Details

Date: 03 February 2023
Orbit: 947 x 1011 km, 83.0° (Epoch: 30 March)

Event Time Altitude Azimuth Distance (km) Brightness Sun altitude
Rises 18:27:21 0° 350° (N) 3,680 7.6 -15.6°
Reaches altitude 10° 18:29:52 10° 350° (N) 2,720 6.9 -16.0°
Maximum altitude 18:36:06 86° 263° (W) 967 4.5 -17.0°
Drops below altitude 10° 18:42:13 10° 175° (S) 2,669 6.8 -18.0°
Sets 18:44:40 0° 175° (S) 3,606 7.5 -18.4°
